AirNav   Pilot Hours Calculator
 
 1007 users online  

W35 Potomac Airpark
Berkeley Springs, West Virginia, USA

GOING TO BERKELEY SPRINGS?


FAA INFORMATION EFFECTIVE 09 SEPTEMBER 2021

Location

FAA Identifier: W35
Lat/Long: 39-41-33.4000N 078-09-57.9000W
39-41.556667N 078-09.965000W
39.6926111,-78.1660833
(estimated)
Elevation: 412.5 ft. / 125.7 m (surveyed)
Variation: 10W (2000)
From city: 4 miles N of BERKELEY SPRINGS, WV
Time zone: UTC -4 (UTC -5 during Standard Time)
Zip code: 25411

Airport Operations

Airport use: Open to the public
Activation date: 12/1947
Control tower: no
ARTCC: WASHINGTON CENTER
FSS: ELKINS FLIGHT SERVICE STATION [703-724-4288]
NOTAMs facility: EKN (NOTAM-D service available)
Attendance: IREG
Wind indicator: yes
Segmented circle: no
Lights: SS-SR

Airport Communications

CTAF: 122.9
POTOMAC APPROACH: 126.825
POTOMAC DEPARTURE: 126.825
WX ASOS at MRB (19 nm SE): 119.925 (304-264-0988)
  • APCH/DEP SVC PRVDD BY POTOMAC TRACON (PCT) FREQ 126.825/239.025.

Nearby radio navigation aids

VOR radial/distance  VOR name  Freq  Var
HGRr276/(14.3)HAGERSTOWN VOR109.8007W
THSr221/17.5ST THOMAS VORTAC115.0007W
MRBr328/23.6MARTINSBURG VORTAC112.1007W

Airport Services

Airframe service: NONE
Powerplant service: NONE
Bottled oxygen: NONE
Bulk oxygen: NONE

Runway Information

Runway 11/29

Dimensions: 4979 x 70 ft. / 1518 x 21 m
Surface: asphalt, in poor condition
PAVEMENT SPALLING, CRACKS, UNEVEN SURFACE. LOOSE AGGREGATE AND STONES. VEGETATION GROWING THROUGH PAVEMENT.
Runway edge lights: medium intensity
Runway edge markings: MARKINGS FADED.
RUNWAY 11  RUNWAY 29
Latitude: 39-41.625638N39-41.487682N
Longitude: 078-10.487978W078-09.441572W
Elevation: 409.9 ft.411.5 ft.
Traffic pattern: leftright
Runway heading: 110 magnetic, 100 true290 magnetic, 280 true
Markings: nonprecision, in poor conditionnonprecision, in poor condition
Runway end identifier lights: nono
Touchdown point: yes, no lightsyes, no lights
Obstructions: 60 ft. trees, 201 ft. from runway, 110 ft. right of centerline
RY 11 60 FT TREES, 0-200 FT DSTC, 110 L, 80 FT TREES, 200 FT DSTC, 175 R.
40 ft. trees, 201 ft. from runway, 110 ft. right of centerline
35 FT TREES AT THLD 10 FT R TO 0 FT DSTC.

Airport Ownership and Management from official FAA records

Ownership: Privately-owned
Owner: RIVERSIDE AIRPARK, LLC
12107 BOYD RD
CLEAR SPRING, MD 21722
Phone 301-842-3700
Manager: RIVERSIDE AIRPARK, LLC
12107 BOYD RD
CLEAR SPRING, MD 21722
Phone 301-842-3700

Airport Operational Statistics

Aircraft based on the field: 8
Single engine airplanes: 5
Multi engine airplanes: 1
Ultralights: 2
    
Aircraft operations: avg 62/month *
67% transient general aviation
33% local general aviation
* for 12-month period ending 31 December 2017

Additional Remarks

NO ACFT OVER 18500 LBS GWT.
FOR CD CTC POTOMAC APCH AT 866-709-4993.
DRAG RACING ON RWY. EXTSV RUBBER BUILD UP ON RWY 29 PAVEMENT END.
RWY 29 END, POSSIBILITY OF 12 FT GRANDSTAND ON EACH SIDE OF RWY, 13 FT. FM RWY EDGE.
8 FT CROPS, 50-80 FT R/L RWY CL.
ARPT CLSD NIGHTS.
UNMANNED ACFT 1000/BLW 1 NMR OF ARPT.
RC MODEL ACFT OPER ON ARPT.
AIRPORT ENTRANCE GATE LOCKED. NO PUBLIC ACCESS TO AIRPORT.
BIRDS & WILDLIFE INVOF ARPT.
RWY 11 APCH END, 10 FT DROP OFF, 30 FT FROM PAVEMENT END. RWY 29 15 FT DROP OFF, 30 FT FM RWY END.

Instrument Procedures

NOTE: All procedures below are presented as PDF files. If you need a reader for these files, you should download the free Adobe Reader.

NOT FOR NAVIGATION. Please procure official charts for flight.
FAA instrument procedures published for use from 09 September 2021 at 0901Z to 07 October 2021 at 0900Z.

 
IAPs - Instrument Approach Procedures
RNAV (GPS) RWY 11   download (214KB)
RNAV (GPS) RWY 29   download (241KB)
VOR RWY 29   download (253KB)
NOTE: Special Take-Off Minimums/Departure Procedures apply   download (335KB)

Other nearby airports with instrument procedures:

KMRB - Eastern WV Regional Airport/Shepherd Field (19 nm SE)
KHGR - Hagerstown Regional Airport-Richard A Henson Field (20 nm E)
KCBE - Greater Cumberland Regional Airport (28 nm W)
KHMZ - Bedford County Airport (29 nm NW)
N68 - Franklin County Regional Airport (29 nm NE)
 
Loc | Ops | Rwys | IFR | FBO | Links
Com | Nav | Svcs | Stats | Notes
Area around W35 (Potomac Airpark)
 
Road maps at: MapQuest Bing Google
 
Aerial photo
WARNING: Photo may not be current or correct
Aerial photo of W35 (Potomac Airpark)
Photo by Rose Kelly
Taken in the Fall of 2007
from a powered parachute

Do you have a better or more recent aerial photo of Potomac Airpark that you would like to share? If so, please send us your photo.

 
Sectional chart

 
Airport distance calculator
Flying to Potomac Airpark? Find the distance to fly.

From to W35

Sunrise and sunset
Times for 27-Sep-2021
 Local
(UTC-4)
 Zulu
(UTC)
Morning civil twilight06:3910:39
Sunrise07:0611:06
Sunset19:0123:01
Evening civil twilight19:2823:28

Current date and time
Zulu (UTC)  28-Sep-2021 02:16:25
Local (UTC-4)  27-Sep-2021 22:16:25
 
METAR
KMRB 
19nm SE 
280153Z 20004KT 10SM CLR 18/13 A2989 RMK AO2 SLP119 T01830128 $
KHGR 
20nm E 
280153Z VRB03KT 10SM CLR 21/13 A2991 RMK AO2 SLP135 T02110128 $
KCBE 
28nm W 
280155Z AUTO 00000KT 10SM CLR 20/12 A2994 RMK AO2 T01990122
KHMZ 
29nm NW 
280150Z AUTO 00000KT 10SM CLR 15/12 A2992 RMK AO2 T01480115
KOKV 
34nm S 
280155Z AUTO 21007KT 10SM CLR 19/13 A2990 RMK AO2
KAOO 
37nm N 
280153Z AUTO 21007KT 10SM CLR 18/11 A2992 RMK AO2 SLP123 T01830111
TAF
KMRB 
19nm SE 
271728Z 2718/2818 20008KT P6SM FEW250 FM271900 20007G16KT P6SM FEW150 FM280100 21005KT P6SM FEW250 FM281400 24006KT P6SM BKN090 FM281500 26008KT P6SM SCT070 FM281700 28008KT P6SM SCT045
NOTAMs
Click for the latest NOTAMs
NOTAMs are issued by the DoD/FAA and will open in a separate window not controlled by AirNav.

 

 
 

Would you like to see your business listed on this page?

 If your business provides an interesting product or service to pilots, flight crews, aircraft, or users of the Potomac Airpark, you should consider listing it here.  To start the listing process, click on the button below
 
Add a business
 

Other Pages about Potomac Airpark

Update a link
 
Copyright © AirNav, LLC. All rights reserved. Privacy Policy  Contact